Date String (YYYY-MM-DD hh:mm:ss) UTC,Instrument flags,absolute air pressure of the measurement (hPa),sample flow rate (lpm),inlet stack bypass flow (lpm),air temperature of the measurement (°C),ambient temperature measured by the external sensor (°C),aerosol sample conditioner tube jacket temperature (°C),OPC LED temperature (°C),internal box temperature (°C),relative humidity of the measurement (%),span deviation,mass concentration of particles derived from Lorenz-Mie calculation of OPC scattering (μg/m³),mass concentration of particles derived from Lorenz-Mie calculation of OPC scattering (μg/m³),mass concentration of particles derived from Lorenz-Mie calculation of OPC scattering (μg/m³)
DateTimeUTC,F1_M11,P_M11,Q1_M11,Q2_M11,T1_M11,T2_M11,T3_M11,T4_M11,T5_M11,U1_M11,ZSPAN_M11,X0_M11,X2_M11,X1_M11
2024-02-01 15:00:00,SystemResetWarning,0824.9,5.00,000.00,023.4,022.8,000.0,031.6,025.1,11.8,0000.0,0008.68,0003.80,0003.44
2024-02-01 15:01:00,SystemResetWarning,0824.9,5.00,000.00,023.4,022.8,000.0,031.6,025.1,11.8,0000.0,0009.47,0003.88,0003.49
2024-02-01 15:02:00,SystemResetWarning,0824.9,5.00,000.00,023.4,022.8,000.0,031.7,025.2,11.8,0000.0,0009.80,0003.94,0003.54
2024-02-01 15:03:00,SystemResetWarning,0824.9,5.00,000.00,023.4,022.9,000.0,031.7,025.2,11.9,0000.0,0010.47,0003.99,0003.56
2024-02-01 15:04:00,SystemResetWarning,0824.9,5.00,000.00,023.4,022.9,000.0,031.7,025.2,12.0,0000.0,0011.00,0004.03,0003.59
2024-02-01 15:05:00,SystemResetWarning,0824.9,5.00,000.00,023.5,022.9,000.0,031.7,025.2,12.1,0000.0,0010.54,0004.07,0003.61
2024-02-01 15:06:00,SystemResetWarning,0824.9,5.00,000.00,023.5,022.9,000.0,031.7,025.2,12.2,0000.0,0010.99,0004.06,0003.58
2024-02-01 15:07:00,SystemResetWarning,0824.9,5.00,000.00,023.5,022.9,000.0,031.7,025.2,12.2,0000.0,0010.84,0004.08,0003.58
2024-02-01 15:08:00,SystemResetWarning,0824.9,5.00,000.00,023.5,023.0,000.0,031.7,025.3,12.0,0000.0,0010.86,0004.16,0003.65
2024-02-01 15:09:00,SystemResetWarning,0824.8,5.00,000.00,023.5,023.0,000.0,031.7,025.3,11.8,0000.0,0010.92,0004.26,0003.74
2024-02-01 15:10:00,SystemResetWarning,0824.9,5.00,000.00,023.5,023.0,000.0,031.7,025.3,11.8,0000.0,0010.85,0004.31,0003.79
2024-02-01 15:11:00,SystemResetWarning,0824.9,5.00,000.00,023.5,023.0,000.0,031.8,025.4,11.7,0000.0,0010.83,0004.32,0003.80
2024-02-01 15:12:00,SystemResetWarning,0824.9,4.99,000.00,023.6,023.0,000.0,031.8,025.4,11.8,0000.0,0010.59,0004.27,0003.77
2024-02-01 15:13:00,SystemResetWarning,0824.9,5.00,000.00,023.6,023.1,000.0,031.8,025.4,12.0,0000.0,0010.10,0004.23,0003.74
2024-02-01 15:14:00,SystemResetWarning,0824.8,4.99,000.00,023.6,023.1,000.0,031.8,025.3,12.5,0000.0,0009.63,0004.21,0003.74
2024-02-01 15:15:00,SystemResetWarning,0824.9,5.00,000.00,023.6,023.1,000.0,031.8,025.4,12.2,0000.0,0009.24,0004.37,0003.90
2024-02-01 15:16:00,SystemResetWarning,0824.9,5.00,000.00,023.6,023.1,000.0,031.8,025.4,11.9,0000.0,0009.29,0004.55,0004.06
2024-02-01 15:17:00,SystemResetWarning,0824.9,5.01,000.00,023.6,023.1,000.0,031.8,025.4,11.8,0000.0,0009.14,0004.65,0004.15
2024-02-01 15:18:00,SystemResetWarning,0824.9,5.00,000.00,023.7,023.1,000.0,031.9,025.4,11.8,0000.0,0009.08,0004.62,0004.15
2024-02-01 15:19:00,SystemResetWarning,0824.9,5.01,000.00,023.7,023.1,000.0,031.9,025.4,11.9,0000.0,0009.06,0004.52,0004.07
2024-02-01 15:20:00,SystemResetWarning,0824.9,4.99,000.00,023.7,023.2,000.0,031.9,025.5,12.0,0000.0,0009.34,0004.43,0004.01
2024-02-01 15:21:00,SystemResetWarning,0824.9,5.00,000.00,023.7,023.2,000.0,031.9,025.5,11.7,0000.0,0010.66,0004.58,0004.15
2024-02-01 15:22:00,SystemResetWarning,0824.9,5.00,000.00,023.7,023.2,000.0,031.9,025.5,11.6,0000.0,0011.22,0004.83,0004.36
2024-02-01 15:23:00,SystemResetWarning,0824.9,5.01,000.00,023.7,023.2,000.0,031.9,025.5,11.6,0000.0,0011.24,0005.01,0004.52
2024-02-01 15:24:00,SystemResetWarning,0824.9,5.01,000.00,023.7,023.2,000.0,031.9,025.5,11.6,0000.0,0011.50,0005.31,0004.77
2024-02-01 15:25:00,SystemResetWarning,0824.9,5.00,000.00,023.8,023.2,000.0,032.0,025.5,11.6,0000.0,0012.24,0005.59,0004.98
2024-02-01 15:26:00,SystemResetWarning,0824.9,4.99,000.00,023.8,023.3,000.0,032.0,025.5,11.7,0000.0,0012.43,0005.53,0004.94
2024-02-01 15:27:00,SystemResetWarning,0824.9,5.01,000.00,023.8,023.3,000.0,032.0,025.5,11.8,0000.0,0012.52,0005.40,0004.83
2024-02-01 15:28:00,SystemResetWarning,0824.9,4.99,000.00,023.8,023.3,000.0,032.0,025.5,11.8,0000.0,0012.54,0005.37,0004.80
2024-02-01 15:29:00,SystemResetWarning,0824.9,4.99,000.00,023.8,023.3,000.0,032.0,025.5,12.2,0000.0,0012.50,0005.44,0004.83
2024-02-01 15:30:00,SystemResetWarning,0824.9,5.00,000.00,023.8,023.3,000.0,032.0,025.6,12.4,0000.0,0012.78,0005.53,0004.88
2024-02-01 15:31:00,SystemResetWarning,0824.9,5.01,000.00,023.8,023.3,000.0,032.0,025.6,12.4,0000.0,0012.93,0005.69,0004.99
2024-02-01 15:32:00,SystemResetWarning,0824.9,5.01,000.00,023.9,023.4,000.0,032.1,025.6,12.2,0000.0,0012.86,0005.82,0005.08
2024-02-01 15:33:00,SystemResetWarning,0824.9,5.00,000.00,023.9,023.4,000.0,032.1,025.6,11.7,0000.0,0013.16,0005.91,0005.15
2024-02-01 15:34:00,SystemResetWarning,0824.9,4.99,000.00,023.9,023.4,000.0,032.1,025.6,11.4,0000.0,0014.28,0006.10,0005.32
2024-02-01 15:35:00,SystemResetWarning,0824.9,4.99,000.00,023.9,023.4,000.0,032.1,025.6,11.4,0000.0,0015.60,0006.19,0005.38
2024-02-01 15:36:00,SystemResetWarning,0824.9,5.00,000.00,023.9,023.4,000.0,032.1,025.6,11.4,0000.0,0015.81,0006.27,0005.47
2024-02-01 15:37:00,SystemResetWarning,0824.9,5.01,000.00,023.9,023.4,000.0,032.1,025.7,11.6,0000.0,0016.44,0006.49,0005.63
2024-02-01 15:38:00,SystemResetWarning,0824.9,5.01,000.00,024.0,023.5,000.0,032.1,025.7,11.7,0000.0,0016.72,0006.69,0005.77
2024-02-01 15:39:00,SystemResetWarning,0824.9,4.99,000.00,024.0,023.5,000.0,032.2,025.7,11.8,0000.0,0016.85,0006.90,0005.96
2024-02-01 15:40:00,SystemResetWarning,0824.9,4.99,000.00,024.0,023.5,000.0,032.2,025.7,11.8,0000.0,0017.35,0007.05,0006.13
2024-02-01 15:41:00,SystemResetWarning,0824.9,5.01,000.00,024.0,023.5,000.0,032.2,025.7,11.8,0000.0,0018.02,0007.17,0006.25
2024-02-01 15:42:00,SystemResetWarning,0824.9,5.01,000.00,024.0,023.5,000.0,032.2,025.7,11.3,0003.6,0018.80,0007.28,0006.34
2024-02-01 15:43:00,SystemResetWarning,0824.9,5.01,000.00,024.0,023.5,000.0,032.2,025.8,11.1,0003.5,0018.57,0007.33,0006.37
2024-02-01 15:44:00,SystemResetWarning,0824.9,5.01,000.00,024.0,023.5,000.0,032.2,025.7,11.1,0004.0,0020.21,0007.38,0006.42
2024-02-01 15:45:00,SystemResetWarning,0824.9,5.01,000.00,024.1,023.6,000.0,032.2,025.8,11.0,0004.7,0020.61,0007.40,0006.43
2024-02-01 15:46:00,SystemResetWarning,0824.9,5.00,000.00,024.1,023.6,000.0,032.3,025.9,11.1,0004.6,0019.22,0007.23,0006.32
2024-02-01 15:47:00,SystemResetWarning,0824.9,5.00,000.00,024.1,023.6,000.0,032.3,025.9,11.4,0004.3,0019.29,0007.19,0006.28
2024-02-01 15:48:00,SystemResetWarning,0824.9,5.00,000.00,024.1,023.6,000.0,032.3,025.9,11.3,0005.1,0018.68,0007.24,0006.31
2024-02-01 15:49:00,SystemResetWarning,0824.9,4.99,000.00,024.1,023.6,000.0,032.3,025.9,11.2,0005.0,0018.64,0007.30,0006.38
2024-02-01 15:50:00,SystemResetWarning,0824.9,5.00,000.00,024.1,023.6,000.0,032.3,025.9,11.0,0004.1,0019.75,0007.40,0006.45
2024-02-01 15:51:00,SystemResetWarning,0824.9,4.99,000.00,024.1,023.6,000.0,032.3,025.9,11.1,0004.7,0020.28,0007.48,0006.51
2024-02-01 15:52:00,SystemResetWarning,0824.9,5.00,000.00,024.2,023.7,000.0,032.3,026.0,11.0,0001.8,0020.29,0007.53,0006.55
2024-02-01 15:53:00,SystemResetWarning,0824.9,5.00,000.00,024.2,023.7,000.0,032.3,026.0,10.7,0000.0,0020.03,0007.52,0006.57
2024-02-01 15:54:00,SystemResetWarning,0824.9,5.01,000.00,024.2,023.7,000.0,032.4,026.0,10.7,0000.0,0019.34,0007.50,0006.58
2024-02-01 15:55:00,SystemResetWarning,0824.9,5.01,000.00,024.2,023.7,000.0,032.4,026.0,10.5,0000.7,0017.37,0007.46,0006.56
2024-02-01 15:56:00,SystemResetWarning,0824.9,5.00,000.00,024.2,023.7,000.0,032.4,026.0,10.7,0001.5,0016.49,0007.46,0006.56
2024-02-01 15:57:00,SystemResetWarning,0825.0,5.00,000.00,024.2,023.7,000.0,032.4,026.0,10.8,0007.9,0017.12,0007.62,0006.66
2024-02-01 15:58:00,SystemResetWarning,0825.0,5.00,000.00,024.2,023.7,000.0,032.4,026.0,10.8,0007.3,0017.45,0007.70,0006.71
2024-02-01 15:59:00,SystemResetWarning,0825.0,4.99,000.00,024.2,023.7,000.0,032.4,026.0,10.9,0007.4,0018.14,0007.65,0006.68
